UAE11M OMDB-LSZH

Flight info

Callsign UAE11M
Flight time N/A
Altitude 34000
Route RIDAP M557 TUMAK L602 BOXIK/N0491F360 L602 GADSI M860 SEPTU DCT VUSEB M860 NINVA UM860 CRM UL746 OLDUD UT643 MODAU UL852 NEGEM DCT DOLAP/N0482F380 DCT VEBAR DCT ETOBI DCT PEVAL DCT BORMI DCT RESIA Z50 KELIP
Aircraft B77W/H-SDE1E2E3FGHIJ2J3J4J5M1RWXY/LB1D1

Departure

Time 2026-04-21 12:17
Airport Dubai International Airport (OMDB)

Arrival

Time N/A
Airport Zürich Airport (LSZH)
Time Latitude Longitude Altitude Speed Heading
2026-04-21 11:48 25.24626 55.36362 26 ft 0 kts 31°
2026-04-21 12:05 25.24617 55.36356 33 ft 3 kts 31°
2026-04-21 12:06 25.24599 55.36345 30 ft 3 kts 31°
2026-04-21 12:06 25.24586 55.36336 33 ft 3 kts 33°
2026-04-21 12:06 25.24572 55.36324 31 ft 3 kts 53°
2026-04-21 12:06 25.24564 55.36311 31 ft 3 kts 83°
2026-04-21 12:07 25.24564 55.36297 31 ft 3 kts 116°
2026-04-21 12:07 25.24574 55.36279 31 ft 3 kts 126°
2026-04-21 12:07 25.24584 55.36264 31 ft 1 kts 122°
2026-04-21 12:07 25.24585 55.36262 31 ft 0 kts 122°
2026-04-21 12:09 25.24582 55.36268 31 ft 3 kts 122°
2026-04-21 12:10 25.24559 55.36308 30 ft 9 kts 122°
2026-04-21 12:10 25.24514 55.36388 29 ft 15 kts 121°
2026-04-21 12:10 25.24460 55.36497 29 ft 16 kts 109°
2026-04-21 12:10 25.24467 55.36620 31 ft 16 kts 63°
2026-04-21 12:11 25.24551 55.36702 28 ft 16 kts 31°
2026-04-21 12:11 25.24648 55.36768 29 ft 16 kts 31°
2026-04-21 12:11 25.24746 55.36834 26 ft 16 kts 31°
2026-04-21 12:11 25.24810 55.36914 28 ft 11 kts 91°
2026-04-21 12:12 25.24777 55.36990 28 ft 11 kts 122°
2026-04-21 12:12 25.24736 55.37062 28 ft 11 kts 121°
2026-04-21 12:12 25.24697 55.37134 28 ft 11 kts 121°
2026-04-21 12:12 25.24656 55.37206 28 ft 11 kts 123°
2026-04-21 12:13 25.24606 55.37294 28 ft 14 kts 121°
2026-04-21 12:13 25.24555 55.37388 28 ft 14 kts 121°
2026-04-21 12:13 25.24501 55.37480 28 ft 14 kts 123°
2026-04-21 12:13 25.24449 55.37573 27 ft 14 kts 121°
2026-04-21 12:14 25.24398 55.37666 27 ft 14 kts 121°
2026-04-21 12:14 25.24418 55.37761 29 ft 14 kts 40°
2026-04-21 12:14 25.24499 55.37824 34 ft 14 kts 35°
2026-04-21 12:14 25.24581 55.37887 32 ft 15 kts 35°
2026-04-21 12:15 25.24675 55.37956 30 ft 16 kts 32°
2026-04-21 12:15 25.24759 55.38013 34 ft 10 kts 32°
2026-04-21 12:15 25.24821 55.38006 34 ft 10 kts 311°
2026-04-21 12:15 25.24857 55.37940 35 ft 13 kts 302°
2026-04-21 12:16 25.24974 55.37729 35 ft 62 kts 301°
2026-04-21 12:16 25.25314 55.37113 35 ft 126 kts 301°
2026-04-21 12:16 25.25878 55.36096 35 ft 177 kts 301°
2026-04-21 12:16 25.26531 55.34912 465 ft 181 kts 303°
2026-04-21 12:17 25.27202 55.33696 926 ft 189 kts 304°
2026-04-21 12:17 25.27892 55.32449 1478 ft 195 kts 304°
2026-04-21 12:17 25.28642 55.31103 1791 ft 216 kts 304°
2026-04-21 12:17 25.29479 55.29628 2115 ft 239 kts 304°
2026-04-21 12:18 25.30432 55.28028 2610 ft 256 kts 305°
2026-04-21 12:18 25.31414 55.26340 3200 ft 265 kts 304°
2026-04-21 12:18 25.32469 55.24655 3848 ft 269 kts 306°
2026-04-21 12:18 25.33585 55.22976 4564 ft 272 kts 305°
2026-04-21 12:19 25.34707 55.21276 5292 ft 274 kts 304°
2026-04-21 12:19 25.35693 55.19489 5842 ft 276 kts 286°
2026-04-21 12:19 25.35862 55.17381 6406 ft 274 kts 265°
2026-04-21 12:19 25.35763 55.15262 7093 ft 276 kts 266°
2026-04-21 12:20 25.35674 55.13157 7899 ft 273 kts 266°
2026-04-21 12:20 25.35588 55.11056 8657 ft 273 kts 266°
2026-04-21 12:20 25.35506 55.08959 9386 ft 274 kts 267°
2026-04-21 12:20 25.35425 55.06851 10061 ft 276 kts 266°
2026-04-21 12:21 25.35344 55.04715 10463 ft 290 kts 266°
2026-04-21 12:21 25.35256 55.02390 10622 ft 314 kts 266°
2026-04-21 12:21 25.35164 54.99887 10796 ft 337 kts 266°
2026-04-21 12:21 25.35065 54.97202 11034 ft 357 kts 266°
2026-04-21 12:22 25.34964 54.94418 11571 ft 367 kts 266°
2026-04-21 12:22 25.34877 54.91573 12280 ft 371 kts 269°
2026-04-21 12:22 25.35287 54.88739 12892 ft 377 kts 285°
2026-04-21 12:22 25.36151 54.85965 13487 ft 385 kts 286°
2026-04-21 12:23 25.37011 54.83144 14272 ft 387 kts 286°
2026-04-21 12:23 25.37845 54.80316 15109 ft 388 kts 285°
2026-04-21 12:23 25.38658 54.77497 15871 ft 390 kts 285°
2026-04-21 12:23 25.39479 54.74623 16642 ft 394 kts 285°
2026-04-21 12:24 25.40305 54.71726 17411 ft 397 kts 286°
2026-04-21 12:24 25.41144 54.68807 18167 ft 399 kts 286°
2026-04-21 12:24 25.41997 54.65863 18812 ft 402 kts 286°
2026-04-21 12:24 25.42854 54.62901 19434 ft 406 kts 286°
2026-04-21 12:25 25.43720 54.59914 20041 ft 410 kts 287°
2026-04-21 12:25 25.44603 54.56904 20654 ft 413 kts 287°
2026-04-21 12:25 25.45500 54.53861 21256 ft 417 kts 287°
2026-04-21 12:25 25.46403 54.50798 21832 ft 421 kts 287°
2026-04-21 12:26 25.47315 54.47699 22411 ft 424 kts 287°
2026-04-21 12:26 25.48229 54.44585 22969 ft 428 kts 287°
2026-04-21 12:26 25.49152 54.41439 23469 ft 432 kts 287°
2026-04-21 12:26 25.50081 54.38264 23911 ft 435 kts 286°
2026-04-21 12:27 25.51019 54.35057 24364 ft 438 kts 286°
2026-04-21 12:27 25.51959 54.31839 24813 ft 441 kts 286°
2026-04-21 12:27 25.52908 54.28591 25236 ft 445 kts 286°
2026-04-21 12:27 25.53851 54.25358 25654 ft 448 kts 286°
2026-04-21 12:28 25.54816 54.22061 26080 ft 451 kts 286°
2026-04-21 12:28 25.55798 54.18743 26483 ft 455 kts 286°
2026-04-21 12:28 25.56790 54.15400 26872 ft 459 kts 286°
2026-04-21 12:28 25.57784 54.12042 27266 ft 462 kts 286°
2026-04-21 12:29 25.58792 54.08628 27657 ft 465 kts 286°
2026-04-21 12:29 25.59798 54.05199 28034 ft 468 kts 286°
2026-04-21 12:29 25.60777 54.01778 28385 ft 471 kts 285°
2026-04-21 12:29 25.61763 53.98287 28737 ft 474 kts 285°
2026-04-21 12:30 25.62749 53.94788 29083 ft 477 kts 285°
2026-04-21 12:30 25.63733 53.91295 29403 ft 479 kts 285°
2026-04-21 12:30 25.64736 53.87747 29712 ft 482 kts 285°
2026-04-21 12:30 25.65743 53.84185 30001 ft 483 kts 285°
2026-04-21 12:31 25.66738 53.80666 30413 ft 481 kts 285°
2026-04-21 12:31 25.67737 53.77132 30941 ft 476 kts 285°
2026-04-21 12:31 25.68711 53.73681 31469 ft 471 kts 285°
2026-04-21 12:31 25.69687 53.70213 31933 ft 468 kts 285°
2026-04-21 12:32 25.70657 53.66760 32319 ft 467 kts 285°
2026-04-21 12:32 25.71629 53.63298 32686 ft 466 kts 285°
2026-04-21 12:32 25.72577 53.59914 33083 ft 464 kts 285°
2026-04-21 12:32 25.73539 53.56482 33479 ft 462 kts 285°
2026-04-21 12:33 25.74483 53.53111 33756 ft 463 kts 285°
2026-04-21 12:33 25.76415 53.46231 33803 ft 465 kts 286°
2026-04-21 12:34 25.78333 53.39459 33812 ft 459 kts 285°
2026-04-21 12:34 25.80233 53.32724 33813 ft 458 kts 285°
2026-04-21 12:35 25.82126 53.25995 33818 ft 457 kts 285°
2026-04-21 12:35 25.83710 53.20359 33827 ft 458 kts 286°
2026-04-21 12:36 25.86087 53.13799 33822 ft 459 kts 292°
2026-04-21 12:36 25.88750 53.07356 33825 ft 460 kts 292°
2026-04-21 12:37 25.91387 53.00915 34129 ft 458 kts 292°
2026-04-21 12:37 25.92699 52.97686 34648 ft 451 kts 292°
2026-04-21 12:37 25.93966 52.94560 35236 ft 442 kts 292°
2026-04-21 12:37 25.95220 52.91462 35754 ft 436 kts 292°
2026-04-21 12:38 25.96464 52.88382 35811 ft 436 kts 292°
2026-04-21 12:38 25.98934 52.82258 35824 ft 435 kts 292°
2026-04-21 12:39 26.01414 52.76111 35839 ft 435 kts 292°
2026-04-21 12:39 26.04005 52.70055 35835 ft 436 kts 294°
2026-04-21 12:40 26.06780 52.64036 35835 ft 436 kts 294°
2026-04-21 12:40 26.09512 52.58015 35832 ft 436 kts 294°
2026-04-21 12:41 26.12230 52.51964 35836 ft 436 kts 294°
2026-04-21 12:41 26.14956 52.45952 35838 ft 436 kts 294°
2026-04-21 12:42 26.17678 52.39947 35843 ft 435 kts 294°
2026-04-21 12:42 26.20391 52.33946 35839 ft 435 kts 294°
2026-04-21 12:43 26.23082 52.27936 35845 ft 434 kts 293°
2026-04-21 12:43 26.25706 52.21858 35846 ft 433 kts 293°
2026-04-21 12:44 26.28309 52.15813 35844 ft 433 kts 293°
2026-04-21 12:44 26.30917 52.09780 35848 ft 432 kts 293°
2026-04-21 12:45 26.33507 52.03759 35849 ft 431 kts 292°
2026-04-21 12:45 26.36090 51.97708 35852 ft 431 kts 292°
2026-04-21 12:46 26.38465 51.91613 35855 ft 428 kts 288°
2026-04-21 12:46 26.40511 51.85376 35858 ft 428 kts 288°
2026-04-21 12:47 26.42590 51.79183 35856 ft 428 kts 288°
2026-04-21 12:47 26.44697 51.72965 35860 ft 429 kts 288°
2026-04-21 12:48 26.46806 51.66717 35860 ft 429 kts 288°
2026-04-21 12:48 26.48917 51.60481 35860 ft 429 kts 288°
2026-04-21 12:49 26.50985 51.54247 35863 ft 430 kts 288°
2026-04-21 12:49 26.53056 51.47987 35860 ft 430 kts 288°
2026-04-21 12:50 26.55138 51.41694 35863 ft 430 kts 288°
2026-04-21 12:50 26.57209 51.35433 35862 ft 430 kts 288°
2026-04-21 12:51 26.59274 51.29180 35861 ft 430 kts 288°
2026-04-21 12:51 26.61340 51.22930 35866 ft 430 kts 288°
2026-04-21 12:52 26.63421 51.16632 35868 ft 429 kts 288°
2026-04-21 12:52 26.65468 51.10421 35872 ft 429 kts 287°
2026-04-21 12:53 26.67523 51.04177 35879 ft 428 kts 287°
2026-04-21 12:53 26.69564 50.97930 35865 ft 428 kts 287°
2026-04-21 12:54 26.71580 50.91644 35865 ft 427 kts 287°
2026-04-21 12:54 26.73577 50.85400 35863 ft 427 kts 287°
2026-04-21 12:55 26.75579 50.79147 35866 ft 427 kts 287°
2026-04-21 12:55 26.77581 50.72886 35867 ft 427 kts 287°
2026-04-21 12:56 26.79924 50.66793 35873 ft 431 kts 295°
2026-04-21 12:56 26.83072 50.61059 35875 ft 435 kts 301°
2026-04-21 12:57 26.86902 50.55770 35876 ft 437 kts 304°
2026-04-21 12:57 26.90761 50.50540 35882 ft 437 kts 304°
2026-04-21 12:58 26.94848 50.45407 35882 ft 440 kts 308°
2026-04-21 12:58 26.99067 50.40440 35885 ft 440 kts 308°
2026-04-21 12:59 27.03267 50.35455 35883 ft 440 kts 307°
2026-04-21 12:59 27.07441 50.30453 35886 ft 440 kts 307°
2026-04-21 13:00 27.11620 50.25409 35888 ft 440 kts 307°
2026-04-21 13:00 27.15855 50.20445 35891 ft 443 kts 311°
2026-04-21 13:01 27.20717 50.16102 35896 ft 449 kts 317°
2026-04-21 13:01 27.25772 50.11977 35886 ft 450 kts 317°
2026-04-21 13:02 27.30807 50.07818 35892 ft 449 kts 316°
2026-04-21 13:02 27.38306 50.01540 35890 ft 449 kts 315°
2026-04-21 13:03 27.43246 49.97195 35891 ft 449 kts 314°
2026-04-21 13:03 27.48157 49.92846 35897 ft 451 kts 314°
2026-04-21 13:04 27.53084 49.88501 35895 ft 452 kts 314°
2026-04-21 13:04 27.58048 49.84130 35891 ft 454 kts 314°
2026-04-21 13:05 27.63035 49.79736 35893 ft 455 kts 314°
2026-04-21 13:05 27.68026 49.75332 35888 ft 456 kts 314°
2026-04-21 13:06 27.73025 49.70915 35893 ft 456 kts 314°
2026-04-21 13:06 27.78020 49.66497 35892 ft 456 kts 314°
2026-04-21 13:07 27.83001 49.62059 35888 ft 455 kts 314°
2026-04-21 13:07 27.87959 49.57619 35890 ft 454 kts 314°
2026-04-21 13:08 27.92907 49.53187 35889 ft 453 kts 313°
2026-04-21 13:08 27.97847 49.48758 35887 ft 452 kts 313°
2026-04-21 13:09 28.02771 49.44339 35891 ft 451 kts 313°
2026-04-21 13:09 28.07630 49.39932 35893 ft 450 kts 313°
2026-04-21 13:10 28.12501 49.35485 35893 ft 449 kts 313°
2026-04-21 13:10 28.17374 49.31035 35891 ft 449 kts 313°
2026-04-21 13:11 28.22242 49.26588 35896 ft 449 kts 313°
2026-04-21 13:11 28.27089 49.22155 35877 ft 448 kts 313°
2026-04-21 13:12 28.31909 49.17712 35883 ft 448 kts 313°
2026-04-21 13:12 28.36778 49.13211 35886 ft 448 kts 313°
2026-04-21 13:13 28.41724 49.08908 35889 ft 453 kts 317°
2026-04-21 13:13 28.46953 49.04934 35893 ft 454 kts 318°
2026-04-21 13:14 28.52220 49.00945 35888 ft 453 kts 318°
2026-04-21 13:14 28.57432 48.96965 35886 ft 452 kts 317°
2026-04-21 13:15 28.62669 48.92947 35887 ft 451 kts 317°
2026-04-21 13:15 28.67862 48.88956 35883 ft 450 kts 317°
2026-04-21 13:16 28.73048 48.84966 35885 ft 449 kts 317°
2026-04-21 13:16 28.78207 48.80993 35884 ft 449 kts 317°
2026-04-21 13:17 28.83366 48.77023 35878 ft 448 kts 317°
2026-04-21 13:17 28.88552 48.73048 35845 ft 448 kts 317°
2026-04-21 13:18 28.93725 48.69076 35876 ft 449 kts 317°
2026-04-21 13:18 28.98946 48.65059 35880 ft 452 kts 317°
2026-04-21 13:19 29.04171 48.61034 35886 ft 454 kts 317°
2026-04-21 13:19 29.09409 48.56994 35878 ft 456 kts 317°
2026-04-21 13:20 29.14670 48.52933 35878 ft 457 kts 317°
2026-04-21 13:20 29.19897 48.48893 35871 ft 457 kts 317°
2026-04-21 13:21 29.25190 48.44796 35859 ft 457 kts 317°
2026-04-21 13:21 29.30451 48.40718 35855 ft 456 kts 317°
2026-04-21 13:22 29.35684 48.36656 35877 ft 455 kts 317°
2026-04-21 13:22 29.40050 48.33263 35857 ft 455 kts 317°
2026-04-21 13:23 29.46260 48.28682 35869 ft 459 kts 321°
2026-04-21 13:23 29.51808 48.25059 35861 ft 460 kts 322°
2026-04-21 13:24 29.56472 48.22031 35862 ft 460 kts 321°
2026-04-21 13:24 29.62011 48.18404 35856 ft 460 kts 321°
2026-04-21 13:25 29.67581 48.14733 35859 ft 460 kts 321°
2026-04-21 13:25 29.73129 48.11069 35856 ft 460 kts 321°
2026-04-21 13:26 29.78671 48.07406 35857 ft 460 kts 321°
2026-04-21 13:26 29.84210 48.03741 35853 ft 460 kts 321°
2026-04-21 13:27 29.89764 48.00060 35852 ft 459 kts 321°
2026-04-21 13:27 29.95292 47.96392 35848 ft 459 kts 321°
2026-04-21 13:28 30.00651 47.92503 35854 ft 449 kts 313°
2026-04-21 13:28 30.05274 47.87772 35851 ft 439 kts 305°
2026-04-21 13:29 30.09262 47.82507 35854 ft 437 kts 303°
2026-04-21 13:29 30.13203 47.77183 35849 ft 438 kts 303°
2026-04-21 13:30 30.17170 47.71851 35848 ft 439 kts 303°
2026-04-21 13:30 30.21181 47.66481 35843 ft 440 kts 303°
2026-04-21 13:31 30.25189 47.61117 35844 ft 440 kts 303°
2026-04-21 13:31 30.29191 47.55753 35834 ft 441 kts 303°
2026-04-21 13:32 30.33192 47.50381 35842 ft 441 kts 303°
2026-04-21 13:32 30.37189 47.45007 35837 ft 441 kts 303°
2026-04-21 13:33 30.41205 47.39601 35840 ft 441 kts 302°
2026-04-21 13:33 30.45204 47.34208 35834 ft 441 kts 302°
2026-04-21 13:34 30.47191 47.31526 35720 ft 443 kts 302°
2026-04-21 13:34 30.49215 47.28789 35786 ft 448 kts 302°
2026-04-21 13:34 30.53300 47.23262 35841 ft 457 kts 302°
2026-04-21 13:35 30.57655 47.17802 35845 ft 467 kts 308°
2026-04-21 13:35 30.62682 47.13031 35840 ft 465 kts 312°
2026-04-21 13:36 30.67763 47.08360 35841 ft 463 kts 311°
2026-04-21 13:36 30.72785 47.03698 35844 ft 463 kts 311°
2026-04-21 13:37 30.77797 46.99011 35843 ft 464 kts 311°
2026-04-21 13:37 30.82850 46.94272 35846 ft 465 kts 311°
2026-04-21 13:38 30.87878 46.89549 35851 ft 466 kts 311°
2026-04-21 13:38 30.92917 46.84812 35852 ft 467 kts 311°
2026-04-21 13:39 30.97960 46.80066 35847 ft 467 kts 311°
2026-04-21 13:39 31.03039 46.75279 35850 ft 468 kts 311°
2026-04-21 13:40 31.08074 46.70527 35851 ft 468 kts 311°
2026-04-21 13:40 31.13126 46.65751 35852 ft 467 kts 311°
2026-04-21 13:41 31.18192 46.60956 35859 ft 467 kts 311°
2026-04-21 13:41 31.23214 46.56195 35856 ft 466 kts 311°
2026-04-21 13:42 31.28259 46.51407 35854 ft 465 kts 311°
2026-04-21 13:42 31.33275 46.46638 35862 ft 464 kts 311°
2026-04-21 13:43 31.38262 46.41891 35864 ft 463 kts 311°
2026-04-21 13:43 31.43227 46.37157 35866 ft 462 kts 311°
2026-04-21 13:44 31.48196 46.32413 35867 ft 461 kts 311°
2026-04-21 13:44 31.53186 46.27641 35869 ft 461 kts 311°
2026-04-21 13:45 31.58138 46.22899 35882 ft 461 kts 311°
2026-04-21 13:45 31.63098 46.18137 35872 ft 464 kts 311°
2026-04-21 13:46 31.68107 46.13331 35888 ft 463 kts 311°
2026-04-21 13:46 31.73099 46.08533 35897 ft 463 kts 311°
2026-04-21 13:47 31.78026 46.03747 35884 ft 462 kts 311°
2026-04-21 13:47 31.82924 45.98878 35893 ft 461 kts 310°
2026-04-21 13:48 31.87825 45.93987 35889 ft 460 kts 310°
2026-04-21 13:48 31.92692 45.89135 35888 ft 460 kts 311°
2026-04-21 13:49 31.97586 45.84257 35885 ft 460 kts 311°
2026-04-21 13:49 32.02466 45.79387 35890 ft 460 kts 311°
2026-04-21 13:50 32.07337 45.74518 35892 ft 460 kts 311°
2026-04-21 13:50 32.12225 45.69626 35890 ft 461 kts 311°
2026-04-21 13:51 32.17107 45.64732 35887 ft 462 kts 311°
2026-04-21 13:51 32.21987 45.59834 35894 ft 462 kts 311°
2026-04-21 13:52 32.26890 45.54905 35904 ft 463 kts 310°
2026-04-21 13:52 32.31788 45.49974 35902 ft 463 kts 310°
2026-04-21 13:53 32.36695 45.45027 35904 ft 463 kts 310°
2026-04-21 13:53 32.41593 45.40081 35890 ft 462 kts 310°
2026-04-21 13:54 32.46468 45.35151 35895 ft 462 kts 310°
2026-04-21 13:54 32.51341 45.30215 35897 ft 461 kts 310°
2026-04-21 13:55 32.56331 45.25353 35898 ft 467 kts 316°
2026-04-21 13:55 32.61747 45.21051 35899 ft 470 kts 317°
2026-04-21 13:56 32.67206 45.16796 35897 ft 470 kts 317°
2026-04-21 13:56 32.72652 45.12507 35906 ft 469 kts 317°
2026-04-21 13:57 32.78064 45.08211 35893 ft 469 kts 317°
2026-04-21 13:57 32.83489 45.03891 35902 ft 470 kts 317°
2026-04-21 13:58 32.88916 44.99565 36118 ft 469 kts 318°
2026-04-21 13:58 32.94273 44.95301 35959 ft 454 kts 318°
2026-04-21 13:59 32.99471 44.91146 35910 ft 451 kts 317°
2026-04-21 13:59 33.04691 44.86960 35900 ft 451 kts 318°
2026-04-21 14:00 33.09894 44.82785 35913 ft 454 kts 318°
2026-04-21 14:00 33.15130 44.78583 35910 ft 456 kts 318°
2026-04-21 14:01 33.20608 44.74625 35905 ft 468 kts 326°
2026-04-21 14:01 33.26738 44.71734 35909 ft 481 kts 335°
2026-04-21 14:02 33.33259 44.69759 35913 ft 484 kts 338°
2026-04-21 14:03 33.43104 44.66974 35906 ft 483 kts 338°
2026-04-21 14:03 33.49635 44.65075 35908 ft 482 kts 338°
2026-04-21 14:04 33.56141 44.63152 35917 ft 481 kts 338°
2026-04-21 14:04 33.62600 44.61235 35903 ft 480 kts 338°
2026-04-21 14:05 33.69086 44.59308 35912 ft 480 kts 338°
2026-04-21 14:05 33.75566 44.57381 35913 ft 480 kts 338°
2026-04-21 14:06 33.82057 44.55449 35913 ft 480 kts 338°
2026-04-21 14:06 33.88552 44.53513 35916 ft 480 kts 338°
2026-04-21 14:07 33.95057 44.51571 35912 ft 481 kts 338°
2026-04-21 14:07 34.01512 44.49641 35909 ft 481 kts 338°
2026-04-21 14:08 34.08015 44.47693 35915 ft 482 kts 338°
2026-04-21 14:08 34.14572 44.45726 35916 ft 482 kts 338°
2026-04-21 14:09 34.21082 44.43770 35916 ft 483 kts 339°
2026-04-21 14:09 34.27600 44.41809 35914 ft 483 kts 339°
2026-04-21 14:10 34.33006 44.40180 35915 ft 483 kts 339°
2026-04-21 14:10 34.40642 44.37875 35915 ft 484 kts 339°
2026-04-21 14:11 34.46098 44.36225 35914 ft 484 kts 339°
2026-04-21 14:11 34.52619 44.34251 35922 ft 484 kts 339°
2026-04-21 14:12 34.59149 44.32271 35922 ft 484 kts 339°
2026-04-21 14:12 34.65674 44.30289 35923 ft 484 kts 339°
2026-04-21 14:13 34.72203 44.28302 35927 ft 484 kts 339°
2026-04-21 14:13 34.78736 44.26311 35926 ft 485 kts 339°
2026-04-21 14:14 34.85270 44.24316 35927 ft 485 kts 339°
2026-04-21 14:14 34.91809 44.22317 35933 ft 485 kts 339°
2026-04-21 14:15 34.98356 44.20312 35937 ft 486 kts 339°
2026-04-21 14:15 35.04908 44.18302 35938 ft 486 kts 339°
2026-04-21 14:16 35.11462 44.16288 35941 ft 486 kts 339°
2026-04-21 14:16 35.18020 44.14269 35943 ft 487 kts 340°
2026-04-21 14:17 35.24580 44.12247 35946 ft 487 kts 340°
2026-04-21 14:17 35.31185 44.10208 35944 ft 487 kts 340°
2026-04-21 14:18 35.37740 44.08180 35942 ft 486 kts 340°
2026-04-21 14:18 35.44301 44.06148 35946 ft 486 kts 340°
2026-04-21 14:19 35.50847 44.04116 35942 ft 486 kts 340°
2026-04-21 14:19 35.57384 44.02084 35948 ft 485 kts 340°
2026-04-21 14:20 35.63927 44.00046 35952 ft 485 kts 340°
2026-04-21 14:20 35.70463 43.98007 35948 ft 485 kts 340°
2026-04-21 14:21 35.76998 43.95964 35951 ft 485 kts 340°
2026-04-21 14:21 35.83580 43.93904 35947 ft 485 kts 340°
2026-04-21 14:22 35.90108 43.91857 35949 ft 485 kts 340°
2026-04-21 14:22 35.96636 43.89807 35947 ft 485 kts 340°
2026-04-21 14:23 36.03163 43.87753 35938 ft 485 kts 340°
2026-04-21 14:23 36.09690 43.85696 35926 ft 485 kts 340°
2026-04-21 14:24 36.16269 43.83619 35921 ft 485 kts 340°
2026-04-21 14:24 36.22799 43.81553 35919 ft 485 kts 341°
2026-04-21 14:25 36.29253 43.79285 35929 ft 480 kts 334°
2026-04-21 14:25 36.35398 43.76127 35936 ft 478 kts 332°
2026-04-21 14:26 36.41497 43.72884 35945 ft 478 kts 332°
2026-04-21 14:26 36.47619 43.69674 35958 ft 478 kts 333°
2026-04-21 14:27 36.53753 43.66484 35967 ft 478 kts 333°
2026-04-21 14:27 36.59876 43.63297 35970 ft 478 kts 333°
2026-04-21 14:28 36.66043 43.60078 35971 ft 478 kts 333°
2026-04-21 14:28 36.72166 43.56876 35973 ft 478 kts 333°
2026-04-21 14:29 36.78268 43.53621 35971 ft 477 kts 332°
2026-04-21 14:29 36.84308 43.50233 35976 ft 477 kts 332°
2026-04-21 14:30 36.90348 43.46829 35965 ft 477 kts 332°
2026-04-21 14:30 36.96390 43.43439 35980 ft 477 kts 332°
2026-04-21 14:31 37.02438 43.40051 35983 ft 477 kts 332°
2026-04-21 14:31 37.08515 43.36641 35972 ft 477 kts 332°
2026-04-21 14:32 37.14578 43.33231 35978 ft 477 kts 332°
2026-04-21 14:32 37.20634 43.29819 35976 ft 477 kts 332°
2026-04-21 14:33 37.26690 43.26401 35979 ft 477 kts 332°
2026-04-21 14:33 37.32556 43.22701 35977 ft 470 kts 320°
2026-04-21 14:34 37.37083 43.16933 35988 ft 462 kts 302°
2026-04-21 14:34 37.40162 43.09894 35983 ft 459 kts 295°
2026-04-21 14:35 37.43102 43.02752 35989 ft 460 kts 295°
2026-04-21 14:35 37.46097 42.95609 35974 ft 462 kts 296°
2026-04-21 14:36 37.49102 42.88510 35980 ft 462 kts 296°
2026-04-21 14:36 37.52129 42.81353 35974 ft 463 kts 296°
2026-04-21 14:37 37.55149 42.74189 35968 ft 463 kts 296°
2026-04-21 14:37 37.58163 42.67021 35967 ft 462 kts 296°
2026-04-21 14:38 37.61183 42.59852 35964 ft 462 kts 296°
2026-04-21 14:38 37.64200 42.52707 35973 ft 461 kts 296°
2026-04-21 14:39 37.67203 42.45576 35964 ft 460 kts 296°
2026-04-21 14:39 37.70197 42.38447 35965 ft 459 kts 296°
2026-04-21 14:40 37.73167 42.31356 35949 ft 459 kts 296°
2026-04-21 14:40 37.76150 42.24221 35949 ft 459 kts 296°
2026-04-21 14:41 37.79125 42.17084 35944 ft 459 kts 296°
2026-04-21 14:41 37.82094 42.09949 35961 ft 458 kts 296°
2026-04-21 14:42 37.85059 42.02805 35962 ft 458 kts 296°
2026-04-21 14:42 37.88024 41.95647 35938 ft 459 kts 296°
2026-04-21 14:43 37.91144 41.88638 35953 ft 461 kts 302°
2026-04-21 14:43 37.95125 41.82269 35956 ft 463 kts 309°
2026-04-21 14:44 37.99423 41.76177 35940 ft 463 kts 310°
2026-04-21 14:44 38.03710 41.70075 35943 ft 463 kts 309°
2026-04-21 14:45 38.07966 41.63958 35939 ft 462 kts 309°
2026-04-21 14:45 38.12216 41.57819 35937 ft 462 kts 309°
2026-04-21 14:46 38.16456 41.51680 35932 ft 462 kts 309°
2026-04-21 14:46 38.20689 41.45541 35934 ft 461 kts 309°
2026-04-21 14:47 38.24907 41.39413 35936 ft 460 kts 309°
2026-04-21 14:47 38.29124 41.33275 35941 ft 460 kts 309°
2026-04-21 14:48 38.33332 41.27138 35941 ft 460 kts 309°
2026-04-21 14:48 38.37512 41.21030 35947 ft 460 kts 309°
2026-04-21 14:49 38.41715 41.14876 35950 ft 459 kts 309°
2026-04-21 14:49 38.45904 41.08732 35951 ft 459 kts 309°
2026-04-21 14:50 38.49359 41.03560 35953 ft 459 kts 308°
2026-04-21 14:50 38.54132 40.96237 35958 ft 459 kts 308°
2026-04-21 14:51 38.58223 40.89969 35962 ft 459 kts 308°
2026-04-21 14:51 38.62310 40.83715 35964 ft 459 kts 308°
2026-04-21 14:52 38.66416 40.77468 35957 ft 459 kts 309°
2026-04-21 14:52 38.70521 40.71277 35973 ft 459 kts 309°
2026-04-21 14:53 38.74647 40.65039 35973 ft 459 kts 308°
2026-04-21 14:53 38.78776 40.58774 35968 ft 460 kts 308°
2026-04-21 14:54 38.82903 40.52497 35967 ft 459 kts 308°
2026-04-21 14:54 38.86997 40.46256 35963 ft 459 kts 308°
2026-04-21 14:55 38.91107 40.39980 35956 ft 459 kts 308°
2026-04-21 14:55 38.95211 40.33699 35957 ft 458 kts 308°
2026-04-21 14:56 38.99302 40.27427 35956 ft 457 kts 308°
2026-04-21 14:56 39.03386 40.21152 35954 ft 457 kts 308°
2026-04-21 14:57 39.07469 40.14866 35953 ft 457 kts 308°
2026-04-21 14:57 39.11536 40.08594 35952 ft 457 kts 308°
2026-04-21 14:58 39.15596 40.02319 35954 ft 457 kts 308°
2026-04-21 14:58 39.18995 39.97056 35942 ft 457 kts 308°
2026-04-21 14:59 39.23054 39.90766 35952 ft 457 kts 308°
2026-04-21 14:59 39.27789 39.83416 35944 ft 457 kts 308°
2026-04-21 15:00 39.31187 39.78129 35950 ft 457 kts 308°
2026-04-21 15:00 39.35227 39.71830 35958 ft 457 kts 308°
2026-04-21 15:01 39.39287 39.65488 35958 ft 457 kts 308°
2026-04-21 15:01 39.43347 39.59132 35961 ft 457 kts 308°
2026-04-21 15:02 39.47385 39.52798 35953 ft 458 kts 307°
2026-04-21 15:02 39.51430 39.46442 35963 ft 457 kts 307°
2026-04-21 15:03 39.55412 39.40068 35956 ft 457 kts 307°
2026-04-21 15:03 39.59403 39.33611 35969 ft 455 kts 307°
2026-04-21 15:04 39.63361 39.27209 35965 ft 456 kts 307°
2026-04-21 15:04 39.67321 39.20801 35959 ft 456 kts 307°
2026-04-21 15:05 39.71263 39.14413 35972 ft 455 kts 306°
2026-04-21 15:05 39.77246 39.04811 35955 ft 456 kts 307°
2026-04-21 15:06 39.81254 38.98440 35967 ft 456 kts 307°
2026-04-21 15:06 39.85272 38.92030 35966 ft 456 kts 307°
2026-04-21 15:07 39.89263 38.85636 35957 ft 456 kts 307°
2026-04-21 15:07 39.93260 38.79216 35946 ft 457 kts 307°
2026-04-21 15:08 39.97253 38.72791 35941 ft 457 kts 307°
2026-04-21 15:08 40.01263 38.66326 35947 ft 457 kts 307°
2026-04-21 15:09 40.05268 38.59856 35944 ft 456 kts 307°
2026-04-21 15:09 40.09227 38.53447 35948 ft 456 kts 306°
2026-04-21 15:10 40.13226 38.46958 35943 ft 457 kts 306°
2026-04-21 15:10 40.17191 38.40511 35946 ft 457 kts 306°
2026-04-21 15:11 40.21187 38.34003 35950 ft 457 kts 306°
2026-04-21 15:11 40.25152 38.27528 35947 ft 457 kts 306°
2026-04-21 15:12 40.29111 38.21050 35949 ft 456 kts 306°
2026-04-21 15:12 40.33083 38.14540 35950 ft 456 kts 306°
2026-04-21 15:13 40.37002 38.08036 35950 ft 456 kts 306°
2026-04-21 15:13 40.40907 38.01505 35947 ft 456 kts 306°
2026-04-21 15:14 40.44809 37.94970 35943 ft 456 kts 306°
2026-04-21 15:14 40.48730 37.88397 35946 ft 455 kts 306°
2026-04-21 15:15 40.52622 37.81861 35952 ft 455 kts 306°
2026-04-21 15:15 40.56527 37.75288 35944 ft 455 kts 306°
2026-04-21 15:16 40.60413 37.68733 35950 ft 455 kts 306°
2026-04-21 15:16 40.64292 37.62177 35955 ft 455 kts 306°
2026-04-21 15:17 40.68163 37.55620 35954 ft 455 kts 306°
2026-04-21 15:17 40.72049 37.49023 35943 ft 455 kts 306°
2026-04-21 15:18 40.75925 37.42431 35951 ft 454 kts 306°
2026-04-21 15:18 40.79787 37.35847 35964 ft 454 kts 306°
2026-04-21 15:19 40.83650 37.29248 35957 ft 454 kts 306°
2026-04-21 15:19 40.87478 37.22695 35963 ft 453 kts 306°
2026-04-21 15:20 40.91324 37.16095 35965 ft 454 kts 306°
2026-04-21 15:20 40.95175 37.09475 35971 ft 453 kts 306°
2026-04-21 15:21 40.99019 37.02852 35974 ft 453 kts 306°
2026-04-21 15:21 41.02847 36.96243 35975 ft 453 kts 305°
2026-04-21 15:22 41.06664 36.89637 35984 ft 453 kts 305°
2026-04-21 15:22 41.10484 36.83011 35989 ft 452 kts 305°
2026-04-21 15:23 41.14306 36.76369 35991 ft 452 kts 305°
2026-04-21 15:23 41.18117 36.69729 35994 ft 452 kts 305°
2026-04-21 15:24 41.21928 36.63079 35996 ft 452 kts 305°
2026-04-21 15:24 41.25531 36.56245 35999 ft 450 kts 298°
2026-04-21 15:25 41.28229 36.48752 35995 ft 449 kts 289°
2026-04-21 15:25 41.30246 36.40884 36000 ft 449 kts 288°
2026-04-21 15:26 41.32204 36.32997 35994 ft 449 kts 288°
2026-04-21 15:26 41.34179 36.25101 35989 ft 450 kts 288°
2026-04-21 15:27 41.36152 36.17263 35985 ft 449 kts 288°
2026-04-21 15:27 41.38138 36.09372 35980 ft 449 kts 288°
2026-04-21 15:28 41.40116 36.01490 35984 ft 448 kts 288°
2026-04-21 15:28 41.42084 35.93616 35977 ft 447 kts 288°
2026-04-21 15:29 41.44030 35.85804 35978 ft 447 kts 288°
2026-04-21 15:29 41.45981 35.77947 35971 ft 446 kts 288°
2026-04-21 15:30 41.47922 35.70100 35969 ft 445 kts 288°
2026-04-21 15:30 41.49854 35.62266 35980 ft 444 kts 288°
2026-04-21 15:31 41.51780 35.54431 35980 ft 444 kts 288°
2026-04-21 15:31 41.53696 35.46611 35974 ft 443 kts 288°
2026-04-21 15:32 41.55601 35.38808 35954 ft 443 kts 287°
2026-04-21 15:32 41.57514 35.30945 35967 ft 443 kts 287°
2026-04-21 15:33 41.59406 35.23141 35962 ft 443 kts 287°
2026-04-21 15:33 41.61296 35.15320 35968 ft 443 kts 287°
2026-04-21 15:34 41.63184 35.07483 35965 ft 443 kts 287°
2026-04-21 15:34 41.65064 34.99654 35965 ft 443 kts 287°
2026-04-21 15:35 41.66941 34.91804 35972 ft 443 kts 287°
2026-04-21 15:35 41.68817 34.83933 35951 ft 443 kts 287°
2026-04-21 15:36 41.70685 34.76073 35967 ft 443 kts 287°
2026-04-21 15:36 41.72550 34.68195 35961 ft 444 kts 287°
2026-04-21 15:37 41.74400 34.60354 35966 ft 444 kts 287°
2026-04-21 15:37 41.76255 34.52461 35966 ft 444 kts 287°
2026-04-21 15:38 41.78102 34.44566 35967 ft 444 kts 287°
2026-04-21 15:38 41.79946 34.36661 35955 ft 444 kts 287°
2026-04-21 15:39 41.81781 34.28764 35970 ft 444 kts 287°
2026-04-21 15:39 41.83610 34.20866 35963 ft 443 kts 287°
2026-04-21 15:40 41.85422 34.13015 35978 ft 443 kts 287°
2026-04-21 15:40 41.87250 34.05065 35974 ft 443 kts 287°
2026-04-21 15:41 41.89047 33.97222 35970 ft 442 kts 287°
2026-04-21 15:41 41.90850 33.89328 35976 ft 442 kts 287°
2026-04-21 15:42 41.92647 33.81431 35980 ft 441 kts 287°
2026-04-21 15:42 41.94433 33.73553 35985 ft 441 kts 286°
2026-04-21 15:43 41.96138 33.65651 35983 ft 440 kts 284°
2026-04-21 15:43 41.97637 33.57725 35986 ft 440 kts 284°
2026-04-21 15:44 41.99141 33.49720 35989 ft 439 kts 284°
2026-04-21 15:44 42.00653 33.41780 35993 ft 439 kts 284°
2026-04-21 15:45 42.02167 33.33860 35984 ft 439 kts 284°
2026-04-21 15:45 42.03677 33.25922 35991 ft 438 kts 284°
2026-04-21 15:46 42.05190 33.17935 35992 ft 437 kts 284°
2026-04-21 15:46 42.06433 33.11351 35994 ft 437 kts 284°
2026-04-21 15:47 42.07961 33.03445 35998 ft 437 kts 285°
2026-04-21 15:47 42.09594 32.95574 35998 ft 437 kts 285°
2026-04-21 15:48 42.11232 32.87659 35998 ft 437 kts 285°
2026-04-21 15:48 42.12839 32.79781 35998 ft 437 kts 285°
2026-04-21 15:49 42.14448 32.71856 35995 ft 437 kts 285°
2026-04-21 15:49 42.15685 32.63883 36001 ft 437 kts 273°
2026-04-21 15:50 42.15323 32.55720 35997 ft 439 kts 261°
2026-04-21 15:50 42.13612 32.47818 35991 ft 442 kts 255°
2026-04-21 15:51 42.11710 32.39919 35992 ft 442 kts 255°
2026-04-21 15:51 42.09877 32.32039 35995 ft 442 kts 255°
2026-04-21 15:52 42.08100 32.24153 35992 ft 441 kts 257°
2026-04-21 15:52 42.06506 32.16166 35998 ft 441 kts 257°
2026-04-21 15:53 42.04920 32.08220 35988 ft 441 kts 257°
2026-04-21 15:53 42.03295 32.00251 35994 ft 441 kts 257°
2026-04-21 15:54 42.01885 31.92220 35987 ft 437 kts 266°
2026-04-21 15:54 42.02073 31.84115 35992 ft 436 kts 279°
2026-04-21 15:55 42.03662 31.76270 35995 ft 436 kts 287°
2026-04-21 15:55 42.05547 31.68518 35994 ft 437 kts 287°
2026-04-21 15:56 42.07400 31.60686 35984 ft 437 kts 287°
2026-04-21 15:56 42.09206 31.52883 35989 ft 437 kts 287°
2026-04-21 15:57 42.11005 31.45068 35989 ft 436 kts 287°
2026-04-21 15:57 42.12798 31.37269 35988 ft 436 kts 287°
2026-04-21 15:58 42.14585 31.29486 35987 ft 435 kts 287°
2026-04-21 15:58 42.16362 31.21723 35988 ft 434 kts 287°
2026-04-21 15:59 42.18132 31.13964 35990 ft 433 kts 287°
2026-04-21 15:59 42.19895 31.06202 35986 ft 433 kts 286°
2026-04-21 16:00 42.21649 30.98458 35987 ft 432 kts 286°
2026-04-21 16:00 42.23403 30.90679 35988 ft 432 kts 286°
2026-04-21 16:01 42.25151 30.82906 35992 ft 431 kts 286°
2026-04-21 16:01 42.26874 30.75211 35988 ft 431 kts 286°
2026-04-21 16:02 42.28617 30.67403 35988 ft 431 kts 286°
2026-04-21 16:02 42.30333 30.59690 35988 ft 431 kts 286°
2026-04-21 16:03 42.32047 30.51953 35991 ft 431 kts 286°
2026-04-21 16:03 42.33766 30.44171 35996 ft 431 kts 286°
2026-04-21 16:04 42.35471 30.36422 35992 ft 431 kts 286°
2026-04-21 16:04 42.37173 30.28657 35989 ft 432 kts 286°
2026-04-21 16:05 42.38876 30.20863 35991 ft 432 kts 286°
2026-04-21 16:05 42.40579 30.13036 35991 ft 432 kts 285°
2026-04-21 16:06 42.42268 30.05246 35994 ft 432 kts 285°
2026-04-21 16:06 42.43954 29.97443 35991 ft 433 kts 285°
2026-04-21 16:07 42.45631 29.89657 35990 ft 433 kts 285°
2026-04-21 16:07 42.47098 29.81723 35997 ft 433 kts 282°
2026-04-21 16:08 42.48989 29.69770 35995 ft 433 kts 282°
2026-04-21 16:09 42.50254 29.61749 35994 ft 434 kts 282°
2026-04-21 16:09 42.51515 29.53776 35996 ft 434 kts 282°
2026-04-21 16:10 42.52779 29.45777 35992 ft 434 kts 282°
2026-04-21 16:10 42.54036 29.37786 35995 ft 434 kts 282°
2026-04-21 16:11 42.55289 29.29781 35997 ft 434 kts 282°
2026-04-21 16:11 42.56540 29.21746 35999 ft 434 kts 282°
2026-04-21 16:12 42.57579 29.15049 35995 ft 434 kts 282°
2026-04-21 16:12 42.59014 29.05745 35997 ft 434 kts 282°
2026-04-21 16:13 42.60245 28.97723 35998 ft 434 kts 281°
2026-04-21 16:13 42.61471 28.89699 35999 ft 434 kts 281°
2026-04-21 16:14 42.62689 28.81680 35997 ft 433 kts 281°
2026-04-21 16:14 42.63902 28.73659 36001 ft 433 kts 281°
2026-04-21 16:15 42.65109 28.65640 35998 ft 433 kts 281°
2026-04-21 16:15 42.66310 28.57613 36004 ft 433 kts 281°
2026-04-21 16:16 42.67499 28.49632 36005 ft 433 kts 281°
2026-04-21 16:16 42.68688 28.41605 36007 ft 434 kts 281°
2026-04-21 16:17 42.69875 28.33556 36006 ft 434 kts 281°
2026-04-21 16:17 42.71054 28.25519 36003 ft 434 kts 281°
2026-04-21 16:18 42.72231 28.17452 36007 ft 434 kts 281°
2026-04-21 16:18 42.73401 28.09392 36003 ft 434 kts 281°
2026-04-21 16:19 42.74555 28.01396 36001 ft 434 kts 281°
2026-04-21 16:19 42.75716 27.93315 36005 ft 434 kts 281°
2026-04-21 16:20 42.76869 27.85249 36001 ft 434 kts 281°
2026-04-21 16:20 42.78018 27.77164 36003 ft 434 kts 281°
2026-04-21 16:21 42.79160 27.69088 36001 ft 434 kts 281°
2026-04-21 16:21 42.80239 27.61413 36006 ft 434 kts 281°
2026-04-21 16:22 42.81370 27.53329 36002 ft 434 kts 281°
2026-04-21 16:22 42.82131 27.47875 35999 ft 434 kts 281°
2026-04-21 16:23 42.83252 27.39782 35999 ft 434 kts 281°
2026-04-21 16:23 42.84367 27.31695 35994 ft 434 kts 281°
2026-04-21 16:24 42.85479 27.23594 35991 ft 435 kts 281°
2026-04-21 16:24 42.86583 27.15495 35989 ft 435 kts 280°
2026-04-21 16:25 42.87676 27.07434 35988 ft 435 kts 280°
2026-04-21 16:25 42.88770 26.99324 35995 ft 435 kts 280°
2026-04-21 16:26 42.89860 26.91202 35987 ft 435 kts 280°
2026-04-21 16:26 42.90945 26.83065 35990 ft 435 kts 280°
2026-04-21 16:27 42.92024 26.74932 35990 ft 435 kts 280°
2026-04-21 16:27 42.93096 26.66800 36001 ft 435 kts 280°
2026-04-21 16:28 42.94157 26.58707 35990 ft 436 kts 280°
2026-04-21 16:28 42.95227 26.50493 36006 ft 437 kts 280°